Weather History for KN60 - October, 2011

Change the Weather History Date:

Tuesday, October 25, 2011

  Actual Average Record
Temperature  
Mean Temperature 42 °F -  
Max Temperature 45 °F 47 °F 73 °F (2007)
Min Temperature 38 °F 28 °F 15 °F (2001)
Degree Days  
Heating Degree Days 23    
Month to date heating degree days 387  
Moisture  
Dew Point 38 °F    
Average Humidity 88    
Maximum Humidity 100    
Minimum Humidity 76    
Precipitation  
Precipitation 0.19 in - - ()
Month to date precipitation 0.97  
Year to date precipitation 17.00  
Sea Level Pressure  
Sea Level Pressure 30.09 in    
Wind  
Wind Speed 8 mph (NW)    
Max Wind Speed 18 mph    
Max Gust Speed 24 mph    
Averages and records for this station are not official NWS values.
T = Trace of Precipitation, MM = Missing Value Source: NWS Daily Summary

Daily Weather History Graph

Daily Weather History Graph

Search for Another Location

Airport or City:

Trip Planner

Search our weather history database for the weather conditions in past years. The results will help you decide how hot, cold, wet, or windy it might be!

Date:

Astronomy

Oct. 25, 2011 Rise Set
Actual Time 8:19 AM CDT 6:39 PM CDT
Civil Twilight 7:47 AM CDT 7:11 PM CDT
Nautical Twilight 7:11 AM CDT 7:47 PM CDT
Astronomical Twilight 6:35 AM CDT 8:23 PM CDT
Moon 6:51 AM CDT (10/25) 5:42 PM CDT (10/25)
Length of Visible Light 11h 24m
Length of Day
10h 20m
Waning Crescent, 2% of the Moon is Illuminated
Oct 25
Waning Crescent
Oct 26
New
Nov 2
First Quarter
Nov 10
Full
Nov 18
Last Quarter

Hourly Weather History & Observations

Time (CDT) Temp. Windchill Dew Point Humidity Pressure Visibility Wind Dir Wind Speed Gust Speed Precip Events Conditions
12:52 AM 41.0 °F 38.0 °F 39.9 °F 96% 30.03 in - West 4.6 mph - N/A   Unknown
1:52 AM 42.1 °F - 39.9 °F 92% 30.04 in - Calm Calm - N/A   Unknown
2:52 AM 41.0 °F 37.1 °F 39.9 °F 96% 30.05 in - WNW 5.8 mph - 0.01 in   Unknown
3:52 AM 41.0 °F 37.1 °F 39.9 °F 96% 30.05 in - NNW 5.8 mph - 0.01 in   Unknown
4:52 AM 41.0 °F 38.0 °F 39.9 °F 96% 30.04 in - North 4.6 mph - 0.01 in   Unknown
5:52 AM 41.0 °F - 39.0 °F 93% 30.05 in - Calm Calm - 0.01 in   Unknown
6:52 AM 41.0 °F - 39.0 °F 93% 30.06 in - Calm Calm - 0.04 in   Unknown
7:52 AM 39.9 °F 37.8 °F 39.0 °F 97% 30.07 in - ENE 3.5 mph - 0.06 in   Unknown
8:52 AM 39.9 °F 35.8 °F 39.0 °F 97% 30.06 in - East 5.8 mph - 0.01 in   Unknown
9:52 AM 39.9 °F 33.9 °F 37.9 °F 93% 30.06 in - ESE 9.2 mph - 0.03 in   Unknown
10:52 AM 42.1 °F 38.4 °F 39.9 °F 92% 30.05 in - South 5.8 mph - 0.01 in   Unknown
11:52 AM 42.1 °F 36.6 °F 39.9 °F 92% 30.06 in - SSW 9.2 mph - N/A   Unknown
12:52 PM 44.1 °F 39.5 °F 41.0 °F 89% 30.06 in - West 8.1 mph - N/A   Unknown
1:52 PM 45.0 °F 40.1 °F 39.9 °F 82% 30.05 in - West 9.2 mph - N/A   Unknown
2:52 PM 44.1 °F 36.2 °F 37.9 °F 79% 30.06 in - West 18.4 mph - N/A   Unknown
3:52 PM 42.1 °F 35.7 °F 37.0 °F 82% 30.06 in - West 11.5 mph - N/A   Unknown
4:52 PM 43.0 °F 36.4 °F 37.0 °F 80% 30.06 in - West 12.7 mph - N/A   Unknown
5:52 PM 43.0 °F 35.1 °F 39.0 °F 86% 30.07 in - NNW 17.3 mph 24.2 mph N/A   Unknown
6:05 PM 42.1 °F 33.9 °F 39.0 °F 89% 30.03 in - NNW 17.3 mph 23.0 mph N/A   Unknown
6:52 PM 39.0 °F 29.9 °F 37.0 °F 93% 30.12 in - NNW 17.3 mph - N/A   Unknown
7:52 PM 37.9 °F 28.2 °F 36.0 °F 93% 30.16 in - North 18.4 mph - N/A   Unknown
8:52 PM 37.0 °F 29.8 °F 35.1 °F 93% 30.19 in - North 10.4 mph 19.6 mph N/A   Unknown
9:52 PM 37.9 °F 30.9 °F 35.1 °F 89% 30.22 in - North 10.4 mph - N/A   Unknown
10:52 PM 37.0 °F 31.0 °F 34.0 °F 89% 30.23 in - North 8.1 mph - N/A   Unknown
11:52 PM 37.0 °F 31.6 °F 34.0 °F 89% 30.24 in - NW 6.9 mph - N/A   Unknown